FDX323 KMEM-KLAX

Flight info

Callsign FDX323
Flight time N/A
Altitude 30000
Route DUCKZ5 HELAR KLUBB TCC DRK GABBL HLYWD1
Aircraft B77L/H-SDE1E2E3FGHIJ2J3J4J5M1RWXY/LB1D1

Departure

Time N/A
Airport Memphis International Airport (KMEM)

Arrival

Time 2026-05-04 19:38
Airport Los Angeles International Airport (KLAX)
Time Latitude Longitude Altitude Speed Heading
2026-05-04 17:40 35.16828 -104.28418 29989 ft 389 kts 270°
2026-05-04 17:40 35.16755 -104.31742 29976 ft 389 kts 270°
2026-05-04 17:41 35.16597 -104.38309 29949 ft 389 kts 270°
2026-05-04 17:41 35.16449 -104.44913 29943 ft 389 kts 270°
2026-05-04 17:42 35.16285 -104.51525 29946 ft 389 kts 270°
2026-05-04 17:42 35.16118 -104.58085 29953 ft 389 kts 270°
2026-05-04 17:43 35.15945 -104.64674 29964 ft 389 kts 270°
2026-05-04 17:43 35.15775 -104.71269 29997 ft 389 kts 269°
2026-05-04 17:44 35.15602 -104.77876 30005 ft 390 kts 269°
2026-05-04 17:44 35.15420 -104.84481 30009 ft 390 kts 269°
2026-05-04 17:45 35.15227 -104.91625 30015 ft 389 kts 269°
2026-05-04 17:45 35.15030 -104.98256 30017 ft 390 kts 269°
2026-05-04 17:46 35.14848 -105.04860 30030 ft 389 kts 269°
2026-05-04 17:46 35.14659 -105.11431 30046 ft 390 kts 269°
2026-05-04 17:47 35.14454 -105.18054 30069 ft 391 kts 269°
2026-05-04 17:47 35.14247 -105.24698 30054 ft 390 kts 269°
2026-05-04 17:48 35.14040 -105.31293 30040 ft 390 kts 269°
2026-05-04 17:48 35.13833 -105.37910 30010 ft 391 kts 269°
2026-05-04 17:49 35.13626 -105.44554 29976 ft 392 kts 269°
2026-05-04 17:49 35.13405 -105.51188 29996 ft 392 kts 269°
2026-05-04 17:50 35.13186 -105.57800 30017 ft 391 kts 269°
2026-05-04 17:50 35.12956 -105.64439 30031 ft 392 kts 269°
2026-05-04 17:51 35.12839 -105.67790 30105 ft 403 kts 268°
2026-05-04 17:51 35.12723 -105.71264 30492 ft 411 kts 268°
2026-05-04 17:51 35.12602 -105.74727 31256 ft 408 kts 268°
2026-05-04 17:51 35.12480 -105.78151 32106 ft 402 kts 268°
2026-05-04 17:52 35.12359 -105.81522 32788 ft 399 kts 268°
2026-05-04 17:52 35.12239 -105.84864 33429 ft 400 kts 268°
2026-05-04 17:52 35.12117 -105.88250 34064 ft 399 kts 268°
2026-05-04 17:52 35.11994 -105.91612 34200 ft 396 kts 268°
2026-05-04 17:53 35.11749 -105.98260 34137 ft 379 kts 269°
2026-05-04 17:53 35.11510 -106.04693 34078 ft 381 kts 269°
2026-05-04 17:54 35.11265 -106.11189 34099 ft 378 kts 269°
2026-05-04 17:54 35.11019 -106.17610 34101 ft 380 kts 269°
2026-05-04 17:55 35.10769 -106.24066 34126 ft 381 kts 269°
2026-05-04 17:55 35.10516 -106.30474 34135 ft 380 kts 269°
2026-05-04 17:56 35.10259 -106.36929 34125 ft 379 kts 269°
2026-05-04 17:56 35.09999 -106.43340 34147 ft 379 kts 269°
2026-05-04 17:57 35.09739 -106.49715 34174 ft 379 kts 269°
2026-05-04 17:57 35.09470 -106.56183 34155 ft 379 kts 269°
2026-05-04 17:58 35.09202 -106.62565 34120 ft 379 kts 269°
2026-05-04 17:58 35.08931 -106.68949 34112 ft 379 kts 268°
2026-05-04 17:59 35.08654 -106.75369 34086 ft 378 kts 268°
2026-05-04 18:00 35.08233 -106.84989 34065 ft 378 kts 268°
2026-05-04 18:00 35.07950 -106.91375 34058 ft 378 kts 268°
2026-05-04 18:01 35.07662 -106.97794 34054 ft 378 kts 268°
2026-05-04 18:01 35.07372 -107.04181 34056 ft 378 kts 268°
2026-05-04 18:02 35.06930 -107.13766 34069 ft 378 kts 268°
2026-05-04 18:02 35.06632 -107.20147 34078 ft 377 kts 268°
2026-05-04 18:03 35.06332 -107.26489 34088 ft 377 kts 268°
2026-05-04 18:03 35.06027 -107.32866 34111 ft 377 kts 268°
2026-05-04 18:04 35.05719 -107.39230 34137 ft 377 kts 268°
2026-05-04 18:05 35.05250 -107.48811 34154 ft 376 kts 268°
2026-05-04 18:05 35.04934 -107.55165 34151 ft 375 kts 268°
2026-05-04 18:06 35.04455 -107.64687 34125 ft 375 kts 268°
2026-05-04 18:06 35.04131 -107.71046 34150 ft 375 kts 267°
2026-05-04 18:07 35.03805 -107.77366 34158 ft 375 kts 267°
2026-05-04 18:07 35.03478 -107.83676 34180 ft 375 kts 267°
2026-05-04 18:08 35.03145 -107.89996 34203 ft 375 kts 267°
2026-05-04 18:08 35.02809 -107.96333 34226 ft 375 kts 267°
2026-05-04 18:09 35.02126 -108.09023 34237 ft 374 kts 267°
2026-05-04 18:10 35.01781 -108.15328 34224 ft 373 kts 267°
2026-05-04 18:10 35.01432 -108.21664 34216 ft 374 kts 266°
2026-05-04 18:11 35.01082 -108.27946 34205 ft 374 kts 266°
2026-05-04 18:11 35.00728 -108.34247 34192 ft 374 kts 266°
2026-05-04 18:12 35.00370 -108.40565 34179 ft 374 kts 266°
2026-05-04 18:12 35.00008 -108.46892 34167 ft 374 kts 266°
2026-05-04 18:13 34.99643 -108.53204 34155 ft 374 kts 266°
2026-05-04 18:14 34.99090 -108.62669 34137 ft 374 kts 266°
2026-05-04 18:14 34.98717 -108.68986 34147 ft 374 kts 266°
2026-05-04 18:15 34.97963 -108.81580 34125 ft 374 kts 266°
2026-05-04 18:16 34.97581 -108.87875 34119 ft 374 kts 266°
2026-05-04 18:16 34.97194 -108.94210 34112 ft 374 kts 266°
2026-05-04 18:17 34.96610 -109.03656 34106 ft 374 kts 265°
2026-05-04 18:18 34.96019 -109.13093 34106 ft 374 kts 265°
2026-05-04 18:18 34.95619 -109.19415 34105 ft 374 kts 265°
2026-05-04 18:19 34.95013 -109.28894 34098 ft 374 kts 265°
2026-05-04 18:19 34.94606 -109.35204 34088 ft 374 kts 265°
2026-05-04 18:20 34.94194 -109.41530 34079 ft 374 kts 265°
2026-05-04 18:20 34.93783 -109.47797 34095 ft 374 kts 265°
2026-05-04 18:21 34.93362 -109.54167 34111 ft 374 kts 265°
2026-05-04 18:21 34.92941 -109.60475 34095 ft 374 kts 265°
2026-05-04 18:22 34.92519 -109.66759 34092 ft 374 kts 265°
2026-05-04 18:22 34.92091 -109.73070 34082 ft 374 kts 264°
2026-05-04 18:23 34.91663 -109.79353 34071 ft 374 kts 264°
2026-05-04 18:23 34.91230 -109.85647 34069 ft 374 kts 264°
2026-05-04 18:24 34.90791 -109.91970 34066 ft 374 kts 264°
2026-05-04 18:24 34.90352 -109.98267 34059 ft 374 kts 264°
2026-05-04 18:25 34.89908 -110.04588 34055 ft 374 kts 264°
2026-05-04 18:25 34.89465 -110.10847 34062 ft 374 kts 264°
2026-05-04 18:26 34.89016 -110.17142 34068 ft 374 kts 264°
2026-05-04 18:26 34.88562 -110.23444 34064 ft 374 kts 264°
2026-05-04 18:27 34.88103 -110.29781 34058 ft 374 kts 264°
2026-05-04 18:27 34.87644 -110.36079 34053 ft 374 kts 264°
2026-05-04 18:28 34.87181 -110.42365 34052 ft 374 kts 264°
2026-05-04 18:28 34.86716 -110.48654 34081 ft 375 kts 264°
2026-05-04 18:29 34.86247 -110.54952 34105 ft 375 kts 264°
2026-05-04 18:29 34.85775 -110.61253 34097 ft 376 kts 263°
2026-05-04 18:30 34.85054 -110.70766 34115 ft 377 kts 263°
2026-05-04 18:31 34.84568 -110.77135 34113 ft 377 kts 263°
2026-05-04 18:31 34.84080 -110.83489 34120 ft 377 kts 263°
2026-05-04 18:32 34.83590 -110.89797 34126 ft 377 kts 263°
2026-05-04 18:32 34.83093 -110.96173 34141 ft 377 kts 263°
2026-05-04 18:33 34.82599 -111.02486 34152 ft 377 kts 263°
2026-05-04 18:33 34.82097 -111.08836 34170 ft 377 kts 263°
2026-05-04 18:34 34.81593 -111.15179 34190 ft 377 kts 263°
2026-05-04 18:34 34.81086 -111.21518 34209 ft 377 kts 262°
2026-05-04 18:35 34.80573 -111.27884 34184 ft 377 kts 262°
2026-05-04 18:35 34.80061 -111.34193 34134 ft 377 kts 262°
2026-05-04 18:36 34.79543 -111.40541 34075 ft 377 kts 262°
2026-05-04 18:36 34.79020 -111.46903 34038 ft 378 kts 262°
2026-05-04 18:37 34.78491 -111.53293 34073 ft 378 kts 262°
2026-05-04 18:37 34.77962 -111.59654 34173 ft 380 kts 262°
2026-05-04 18:38 34.77430 -111.65998 34127 ft 379 kts 262°
2026-05-04 18:38 34.76894 -111.72360 34089 ft 379 kts 262°
2026-05-04 18:39 34.76355 -111.78719 34045 ft 379 kts 262°
2026-05-04 18:39 34.75811 -111.85088 34010 ft 379 kts 261°
2026-05-04 18:40 34.75261 -111.91492 33983 ft 379 kts 262°
2026-05-04 18:40 34.74712 -111.97849 33963 ft 379 kts 261°
2026-05-04 18:41 34.74159 -112.04207 33959 ft 379 kts 261°
2026-05-04 18:41 34.73602 -112.10572 34003 ft 380 kts 261°
2026-05-04 18:42 34.73044 -112.16912 34061 ft 380 kts 261°
2026-05-04 18:42 34.72477 -112.23308 34113 ft 379 kts 261°
2026-05-04 18:43 34.71912 -112.29658 34122 ft 379 kts 261°
2026-05-04 18:43 34.71344 -112.35997 34093 ft 379 kts 261°
2026-05-04 18:44 34.70769 -112.42371 34066 ft 379 kts 261°
2026-05-04 18:44 34.70168 -112.48737 34042 ft 379 kts 260°
2026-05-04 18:45 34.69463 -112.55070 34034 ft 379 kts 260°
2026-05-04 18:45 34.68753 -112.61382 34034 ft 379 kts 259°
2026-05-04 18:46 34.68039 -112.67695 34052 ft 378 kts 259°
2026-05-04 18:46 34.67319 -112.74023 34053 ft 378 kts 259°
2026-05-04 18:47 34.66599 -112.80326 34048 ft 378 kts 259°
2026-05-04 18:47 34.65877 -112.86606 34038 ft 378 kts 259°
2026-05-04 18:48 34.65148 -112.92925 34027 ft 378 kts 259°
2026-05-04 18:48 34.64418 -112.99216 34013 ft 378 kts 259°
2026-05-04 18:49 34.63683 -113.05530 33989 ft 377 kts 259°
2026-05-04 18:49 34.62949 -113.11799 33962 ft 377 kts 259°
2026-05-04 18:50 34.62208 -113.18109 33941 ft 378 kts 259°
2026-05-04 18:50 34.61464 -113.24402 33922 ft 378 kts 259°
2026-05-04 18:51 34.60714 -113.30724 33910 ft 378 kts 259°
2026-05-04 18:51 34.59967 -113.36996 33901 ft 378 kts 259°
2026-05-04 18:52 34.59210 -113.43317 33888 ft 379 kts 259°
2026-05-04 18:52 34.58456 -113.49590 33916 ft 379 kts 259°
2026-05-04 18:53 34.57693 -113.55912 33964 ft 379 kts 259°
2026-05-04 18:53 34.56926 -113.62235 33977 ft 379 kts 259°
2026-05-04 18:54 34.56158 -113.68529 33981 ft 378 kts 258°
2026-05-04 18:54 34.55385 -113.74849 33894 ft 378 kts 258°
2026-05-04 18:55 34.54613 -113.81132 33838 ft 378 kts 258°
2026-05-04 18:55 34.53435 -113.90665 33865 ft 379 kts 258°
2026-05-04 18:56 34.52652 -113.96963 33898 ft 379 kts 258°
2026-05-04 18:56 34.51861 -114.03305 33953 ft 379 kts 258°
2026-05-04 18:57 34.50750 -114.09508 33977 ft 377 kts 254°
2026-05-04 18:57 34.49463 -114.15610 33993 ft 377 kts 253°
2026-05-04 18:58 34.48158 -114.21771 33987 ft 377 kts 253°
2026-05-04 18:58 34.46855 -114.27911 33978 ft 377 kts 253°
2026-05-04 18:59 34.45612 -114.33754 33967 ft 377 kts 253°
2026-05-04 18:59 34.44299 -114.39908 33958 ft 377 kts 253°
2026-05-04 19:00 34.43068 -114.45670 33952 ft 377 kts 253°
2026-05-04 19:00 34.41745 -114.51840 33948 ft 377 kts 253°
2026-05-04 19:01 34.40425 -114.57979 33950 ft 377 kts 253°
2026-05-04 19:01 34.39098 -114.64139 33953 ft 376 kts 253°
2026-05-04 19:02 34.37777 -114.70254 33982 ft 376 kts 253°
2026-05-04 19:02 34.36457 -114.76344 33987 ft 376 kts 253°
2026-05-04 19:03 34.35138 -114.82418 33981 ft 376 kts 253°
2026-05-04 19:03 34.33799 -114.88567 33973 ft 375 kts 252°
2026-05-04 19:04 34.32473 -114.94641 33964 ft 375 kts 252°
2026-05-04 19:04 34.31126 -115.00786 33957 ft 375 kts 252°
2026-05-04 19:05 34.29785 -115.06886 33957 ft 375 kts 252°
2026-05-04 19:05 34.28440 -115.12994 33957 ft 375 kts 252°
2026-05-04 19:06 34.27101 -115.19054 33957 ft 374 kts 252°
2026-05-04 19:06 34.25769 -115.25160 33956 ft 375 kts 252°
2026-05-04 19:07 34.24483 -115.31231 33961 ft 375 kts 252°
2026-05-04 19:07 34.23181 -115.37344 33970 ft 375 kts 252°
2026-05-04 19:08 34.21874 -115.43456 33977 ft 374 kts 252°
2026-05-04 19:08 34.20569 -115.49544 33968 ft 375 kts 252°
2026-05-04 19:09 34.19262 -115.55617 33957 ft 375 kts 252°
2026-05-04 19:09 34.17947 -115.61718 33964 ft 374 kts 252°
2026-05-04 19:10 34.16628 -115.67821 33995 ft 374 kts 252°
2026-05-04 19:10 34.15883 -115.74046 34011 ft 378 kts 258°
2026-05-04 19:11 34.15286 -115.80318 34022 ft 378 kts 258°
2026-05-04 19:11 34.14677 -115.86635 34030 ft 378 kts 258°
2026-05-04 19:12 34.13755 -115.96124 34044 ft 378 kts 257°
2026-05-04 19:13 34.13149 -116.02338 33554 ft 373 kts 257°
2026-05-04 19:13 34.12842 -116.05461 32718 ft 378 kts 257°
2026-05-04 19:13 34.12531 -116.08611 31894 ft 382 kts 258°
2026-05-04 19:13 34.12218 -116.11793 31067 ft 385 kts 258°
2026-05-04 19:14 34.11899 -116.15028 30500 ft 381 kts 258°
2026-05-04 19:14 34.11588 -116.18191 29849 ft 376 kts 257°
2026-05-04 19:14 34.11283 -116.21275 29273 ft 369 kts 257°
2026-05-04 19:14 34.10981 -116.24332 28747 ft 362 kts 257°
2026-05-04 19:15 34.10677 -116.27354 28233 ft 374 kts 257°
2026-05-04 19:15 34.10355 -116.30525 27794 ft 384 kts 257°
2026-05-04 19:15 34.10020 -116.33707 27305 ft 382 kts 257°
2026-05-04 19:15 34.09685 -116.36856 26797 ft 378 kts 257°
2026-05-04 19:16 34.09352 -116.39964 26291 ft 374 kts 257°
2026-05-04 19:16 34.09020 -116.43063 25747 ft 372 kts 257°
2026-05-04 19:16 34.08700 -116.46036 25163 ft 371 kts 257°
2026-05-04 19:16 34.08374 -116.49066 24551 ft 370 kts 258°
2026-05-04 19:17 34.08042 -116.52141 24075 ft 366 kts 258°
2026-05-04 19:17 34.07721 -116.55118 23753 ft 358 kts 258°
2026-05-04 19:17 34.07404 -116.58061 23512 ft 344 kts 258°
2026-05-04 19:17 34.07118 -116.60842 23344 ft 331 kts 259°
2026-05-04 19:18 34.06867 -116.63605 22935 ft 329 kts 259°
2026-05-04 19:18 34.06621 -116.66320 22573 ft 327 kts 259°
2026-05-04 19:18 34.06370 -116.69045 22196 ft 326 kts 259°
2026-05-04 19:18 34.06121 -116.71740 21812 ft 324 kts 259°
2026-05-04 19:19 34.05870 -116.74419 21415 ft 323 kts 259°
2026-05-04 19:19 34.05621 -116.77097 20890 ft 320 kts 259°
2026-05-04 19:19 34.05373 -116.79742 20558 ft 314 kts 259°
2026-05-04 19:19 34.05126 -116.82352 20357 ft 317 kts 259°
2026-05-04 19:20 34.04877 -116.84992 20176 ft 317 kts 259°
2026-05-04 19:20 34.04630 -116.87620 20119 ft 319 kts 259°
2026-05-04 19:20 34.04361 -116.90285 19839 ft 320 kts 257°
2026-05-04 19:20 34.04014 -116.92910 19441 ft 319 kts 257°
2026-05-04 19:21 34.03658 -116.95542 19013 ft 317 kts 257°
2026-05-04 19:21 34.03315 -116.98141 18542 ft 314 kts 257°
2026-05-04 19:21 34.02980 -117.00706 18151 ft 308 kts 257°
2026-05-04 19:21 34.02645 -117.03265 17806 ft 306 kts 257°
2026-05-04 19:22 34.02335 -117.05804 17477 ft 308 kts 258°
2026-05-04 19:22 34.02039 -117.08360 17168 ft 308 kts 258°
2026-05-04 19:22 34.01741 -117.10902 16851 ft 308 kts 258°
2026-05-04 19:22 34.01441 -117.13443 16486 ft 308 kts 258°
2026-05-04 19:23 34.01138 -117.16005 16088 ft 307 kts 258°
2026-05-04 19:23 34.00837 -117.18531 15708 ft 305 kts 258°
2026-05-04 19:23 34.00539 -117.21032 15354 ft 304 kts 258°
2026-05-04 19:23 34.00238 -117.23550 15003 ft 304 kts 258°
2026-05-04 19:24 33.99936 -117.26068 14652 ft 304 kts 258°
2026-05-04 19:24 33.99634 -117.28569 14310 ft 303 kts 259°
2026-05-04 19:24 33.99333 -117.31078 13962 ft 302 kts 259°
2026-05-04 19:24 33.99037 -117.33595 13663 ft 301 kts 259°
2026-05-04 19:25 33.98746 -117.36079 13398 ft 302 kts 259°
2026-05-04 19:25 33.98451 -117.38593 13094 ft 301 kts 259°
2026-05-04 19:25 33.98140 -117.41037 12806 ft 294 kts 257°
2026-05-04 19:25 33.97822 -117.43431 12536 ft 289 kts 260°
2026-05-04 19:26 33.97572 -117.45833 12275 ft 290 kts 260°
2026-05-04 19:26 33.97351 -117.48261 12024 ft 291 kts 267°
2026-05-04 19:26 33.97587 -117.50672 11776 ft 291 kts 277°
2026-05-04 19:26 33.97981 -117.53023 11537 ft 285 kts 278°
2026-05-04 19:27 33.98396 -117.55351 11300 ft 278 kts 278°
2026-05-04 19:27 33.98589 -117.57608 11086 ft 267 kts 268°
2026-05-04 19:27 33.98667 -117.59802 10874 ft 261 kts 270°
2026-05-04 19:27 33.98795 -117.61955 10659 ft 257 kts 271°
2026-05-04 19:28 33.98931 -117.64128 10448 ft 258 kts 271°
2026-05-04 19:28 33.99023 -117.66277 10228 ft 258 kts 269°
2026-05-04 19:28 33.99076 -117.68424 10015 ft 258 kts 268°
2026-05-04 19:28 33.99093 -117.70595 9719 ft 260 kts 267°
2026-05-04 19:29 33.99072 -117.72750 9410 ft 259 kts 267°
2026-05-04 19:29 33.99036 -117.74914 9137 ft 257 kts 266°
2026-05-04 19:29 33.98982 -117.77074 8874 ft 259 kts 266°
2026-05-04 19:29 33.98898 -117.79231 8608 ft 259 kts 265°
2026-05-04 19:30 33.98795 -117.81393 8339 ft 260 kts 265°
2026-05-04 19:30 33.98674 -117.83556 8067 ft 260 kts 265°
2026-05-04 19:30 33.98541 -117.85738 7789 ft 259 kts 265°
2026-05-04 19:30 33.98399 -117.87901 7511 ft 259 kts 265°
2026-05-04 19:31 33.98244 -117.90050 7231 ft 258 kts 264°
2026-05-04 19:31 33.98079 -117.92197 6944 ft 257 kts 264°
2026-05-04 19:31 33.97917 -117.94321 6657 ft 256 kts 264°
2026-05-04 19:31 33.97749 -117.96455 6367 ft 255 kts 264°
2026-05-04 19:32 33.97577 -117.98573 6076 ft 253 kts 264°
2026-05-04 19:32 33.97401 -118.00668 5792 ft 252 kts 264°
2026-05-04 19:32 33.97219 -118.02760 5509 ft 251 kts 263°
2026-05-04 19:32 33.97031 -118.04857 5223 ft 250 kts 263°
2026-05-04 19:33 33.96841 -118.06915 4940 ft 249 kts 263°
2026-05-04 19:33 33.96646 -118.08996 4645 ft 249 kts 263°
2026-05-04 19:33 33.96452 -118.11044 4350 ft 248 kts 263°
2026-05-04 19:33 33.96249 -118.13126 4045 ft 248 kts 263°
2026-05-04 19:34 33.96049 -118.15187 3739 ft 248 kts 263°
2026-05-04 19:34 33.95847 -118.17248 3433 ft 248 kts 263°
2026-05-04 19:34 33.95645 -118.19289 3138 ft 246 kts 263°
2026-05-04 19:34 33.95444 -118.21320 2816 ft 243 kts 263°
2026-05-04 19:35 33.95251 -118.23283 2510 ft 233 kts 264°
2026-05-04 19:35 33.95065 -118.25178 2230 ft 214 kts 264°
2026-05-04 19:35 33.94902 -118.26855 1986 ft 195 kts 264°
2026-05-04 19:35 33.94743 -118.28439 1774 ft 184 kts 263°
2026-05-04 19:36 33.94594 -118.29907 1542 ft 171 kts 263°
2026-05-04 19:36 33.94455 -118.31270 1318 ft 157 kts 263°
2026-05-04 19:36 33.94329 -118.32505 1100 ft 144 kts 263°
2026-05-04 19:36 33.94202 -118.33688 885 ft 139 kts 263°
2026-05-04 19:37 33.94094 -118.34840 665 ft 136 kts 262°
2026-05-04 19:37 33.93973 -118.35956 490 ft 133 kts 263°
2026-05-04 19:37 33.93862 -118.37071 333 ft 134 kts 262°
2026-05-04 19:37 33.93743 -118.38193 165 ft 135 kts 263°
2026-05-04 19:38 33.93637 -118.39270 117 ft 121 kts 263°
2026-05-04 19:38 33.93550 -118.40095 128 ft 76 kts 263°
2026-05-04 19:38 33.93504 -118.40547 135 ft 32 kts 263°
2026-05-04 19:38 33.93456 -118.40710 137 ft 18 kts 201°
2026-05-04 19:39 33.93373 -118.40671 135 ft 12 kts 106°
2026-05-04 19:39 33.93373 -118.40616 134 ft 0 kts 82°
2026-05-04 19:39 33.93374 -118.40612 134 ft 2 kts 82°
2026-05-04 19:39 33.93380 -118.40562 133 ft 9 kts 81°
2026-05-04 19:40 33.93391 -118.40460 132 ft 15 kts 83°
2026-05-04 19:40 33.93404 -118.40308 131 ft 20 kts 84°
2026-05-04 19:40 33.93424 -118.40122 129 ft 23 kts 83°
2026-05-04 19:40 33.93445 -118.39927 126 ft 23 kts 83°
2026-05-04 19:41 33.93464 -118.39728 123 ft 23 kts 82°
2026-05-04 19:41 33.93485 -118.39530 119 ft 24 kts 83°
2026-05-04 19:41 33.93506 -118.39328 116 ft 24 kts 83°
2026-05-04 19:41 33.93525 -118.39127 115 ft 23 kts 83°
2026-05-04 19:42 33.93549 -118.38933 114 ft 22 kts 83°
2026-05-04 19:42 33.93504 -118.38853 114 ft 10 kts 174°
2026-05-04 19:42 33.93441 -118.38845 114 ft 6 kts 172°
2026-05-04 19:42 33.93412 -118.38841 114 ft 2 kts 173°
2026-05-04 19:43 33.93404 -118.38840 114 ft 0 kts 173°
2026-05-04 19:43 33.93403 -118.38839 114 ft 0 kts 173°